This is the latest recevied weather packets stored in our database for station/object WA0LM. If no packets are shown the sender has not sent any weather packets the latest 10 day(s).
| Time | Temp. | Humidity | Pressure | Rain* | Wind** | Luminosity | Snow |
|---|---|---|---|---|---|---|---|
| 1788142014 | 74° F | 90% | 755.2 mmHg | 0 in | - | 0 W/m² | - |
| 1788141708 | 74° F | 90% | 755.4 mmHg | 0 in | - | 0 W/m² | - |
| 1788141404 | 74° F | 90% | 755.3 mmHg | 0 in | - | 0 W/m² | - |
| 1788141103 | 74° F | 90% | 755.2 mmHg | 0 in | - | 0 W/m² | - |
| 1788140798 | 74° F | 90% | 755.2 mmHg | 0 in | - | 0 W/m² | - |
| 1788140493 | 74° F | 90% | 755.2 mmHg | 0 in | - | 0 W/m² | - |
| 1788140189 | 74° F | 90% | 755.3 mmHg | 0 in | - | 0 W/m² | - |
| 1788139889 | 75° F | 89% | 755.5 mmHg | 0 in | - | 0 W/m² | - |
| 1788139584 | 75° F | 89% | 755.5 mmHg | 0 in | - | 0 W/m² | - |
| 1788139279 | 75° F | 89% | 755.4 mmHg | 0 in | - | 0 W/m² | - |
| 1788138978 | 75° F | 89% | 755.3 mmHg | 0 in | - | 0 W/m² | - |
| 1788138674 | 75° F | 88% | 755.3 mmHg | 0 in | - | 0 W/m² | - |
| 1788138370 | 75° F | 88% | 755.3 mmHg | 0 in | - | 1 W/m² | - |
| 1788138065 | 76° F | 88% | 755.5 mmHg | 0 in | - | 2 W/m² | - |
| 1788137760 | 76° F | 87% | 755.6 mmHg | 0 in | - | 3 W/m² | - |
| 1788137459 | 76° F | 87% | 755.5 mmHg | 0 in | - | 4 W/m² | - |
| 1788137155 | 76° F | 87% | 755.7 mmHg | 0 in | - | 5 W/m² | - |
| 1788136851 | 76° F | 87% | 755.4 mmHg | 0 in | - | 7 W/m² | - |
| 1788136548 | 76° F | 87% | 755.5 mmHg | 0 in | - | 9 W/m² | - |
| 1788136243 | 76° F | 87% | 755.5 mmHg | 0 in | - | 12 W/m² | - |
| 1788135941 | 76° F | 86% | 755.5 mmHg | 0 in | - | 16 W/m² | - |
| 1788135637 | 76° F | 86% | 755.5 mmHg | 0 in | - | 23 W/m² | - |
| 1788135332 | 76° F | 86% | 755.6 mmHg | 0 in | - | 40 W/m² | - |
| 1788135029 | 76° F | 86% | 755.6 mmHg | 0 in | - | 22 W/m² | - |
| 1788134725 | 76° F | 86% | 755.6 mmHg | 0 in | - | 21 W/m² | - |
* Rain latest hour (hover to see other rain measurements)
** Current wind speed in m/s (hover to see current wind gust speed)